www.pogodaiklimat.ru

Погода и климат >> Архив погоды >> Франция >> Амберьё-ан-Бюже


ПОГОДА в Амберьё-ан-Бюже

  • Прогноз погоды в Амберьё-ан-Бюже
  • Монитор погоды в Амберьё-ан-Бюже

АРХИВ ПОГОДЫ в Амберьё-ан-Бюже

Время (UTC), дата Ветер
(напр.,м/с)
 
Видим.   Явления Облачность Т
(С)
Тd
(С)
f
(%)
Тe
(С)
Тes
(С)
Комфортность P
(гПа)
Po
(гПа)
Тmin
(С)
Tmax
(С)
R
(мм)
R24
(мм)
S
(см)
10 10.08 З 1 20 км н/о +22.3 +13.1 56 +25 +25 комфорт 1019.5 990.5
05 11.08 С 1 20 км н/о +15.3 +14.5 95 +16 +16 1017.4 987.8
07 11.08 СВ 1 20 км н/о +19.0 +14.7 76 +21 +21 комфорт 1016.2 987.0
08 11.08 СЗ 1 20 км н/о +20.7 +15.0 70 +25 +25 комфорт 1014.7 985.7
10 11.08 ЮЗ 1 20 км н/о +23.6 +14.9 58 +26 +26 жарко 1013.8 985.1
11 11.08 СЗ 1 20 км н/о +24.8 +16.0 58 +28 +28 жарко 1013.1 984.5
12 11.08 СЗ 2 20 км н/о +25.7 +15.7 54 +29 +29 душно 1013.1 984.6
13 11.08 С 4 20 км н/о +23.6 +14.6 57 +26 +26 жарко 1013.8 985.1
14 11.08 С 4 20 км н/о +17.5 +13.6 78 +17 +17 1017.1 987.7 0.0
15 11.08 С 3 19 км н/о +15.6 +14.6 94 +15 +15 1017.4 987.8 6
16 11.08 С 3 20 км н/о +14.6 +13.6 94 +14 +14 1017.3 987.6 0.2
17 11.08 С 2 20 км н/о +14.2 +13.2 94 +14 +14 1017.7 987.9
10 12.08 С 1 20 км н/о +16.7 +13.2 80 +18 +18 1019.1 989.5
11 12.08 С 1 20 км н/о +18.3 +12.5 69 +20 +20 1018.7 989.3
13 12.08 С 2 20 км н/о +19.5 +11.8 61 +22 +22 комфорт 1018.5 989.2
14 12.08 С 2 20 км н/о +21.1 +11.7 55 +23 +23 комфорт 1017.8 988.7
15 12.08 СВ 1 20 км н/о +21.5 +10.6 50 +23 +23 комфорт 1017.1 988.1
16 12.08 З 1 20 км н/о +22.1 +11.2 50 +24 +24 комфорт 1017.1 988.1
17 12.08 СЗ 1 20 км н/о +22.4 +11.5 50 +25 +25 комфорт 1017.3 988.3
18 12.08 штиль 0
{2}
20 км н/о +20.0 +13.0 64 +22 +22 комфорт 1018.1 988.9 +13.1 +22.9 0
19 12.08 ЮВ 1 20 км н/о +18.5 +12.7 69 +20 +20 1018.8 989.4
20 12.08 Ю 1 20 км н/о +16.1 +13.6 85 +17 +17 1019.8 990.2
21 12.08 СЗ 1
{7}
20 км н/о +15.8 +12.2 79 +16 +16 1020.8 991.1 0
22 12.08 В 1 20 км н/о +14.8 +13.0 89 +16 +16 1021.1 991.3 4
23 12.08 СВ 1 20 км н/о +14.3 +13.3 94 +15 +15 1021.3 991.4
00 13.08 С 1 20 км н/о +13.2 +12.4 95 +14 +14 1021.5 991.5 4
14 15.08 С 1 20 км н/о +22.0 +12.3 54 +24 +24 комфорт 1018.4 989.4
16 15.08 С 2 13 км н/о +22.9 +10.7 46 +25 +25 комфорт 1018.6 989.6
17 15.08 С 3 20 км н/о +22.4 +9.2 43 +24 +24 комфорт 1018.9 989.9
19 15.08 С 1 20 км н/о +17.8 +9.4 58 +19 +19 1020.2 990.7
20 15.08 СВ 1 20 км н/о +15.5 +10.3 71 +16 +16 1021.1 991.3
21 15.08 В 1 20 км н/о +14.2 +10.2 77 +15 +15 1021.4 991.5
22 15.08 СВ 1 20 км н/о +13.1 +10.1 82 +14 +14 1021.9 991.9
23 15.08 СВ 1 20 км н/о +12.7 +10.1 84 +14 +14 1022.0 991.9
00 16.08 С 1
{3}
20 км н/о +11.2 +9.3 88 +11 +11 1021.8 991.6 0
01 16.08 СВ 2 20 км н/о +12.4 +10.5 88 +12 +12 1021.8 991.7
02 16.08 СВ 1 20 км н/о +11.8 +10.0 89 +12 +12 1021.7 991.5
03 16.08 СВ 1
{3}
20 км н/о +10.9 +9.3 90 +10 +10 1021.1 990.9 0
04 16.08 С 1 20 км н/о +10.2 +9.0 92 +11 +11 1021.1 990.8
05 16.08 СВ 1 20 км н/о +10.1 +9.2 94 +9 +9 1020.8 990.5

 

Местоположение метеостанции Амберьё-ан-Бюже (Франция): широта 45.98 долгота 5.33 высота над уровнем моря 253 м.

В архиве по умолчанию представлена погода в Амберьё-ан-Бюже за последнюю неделю. Архивные данные за месяц целиком и за предыдущие месяцы, начиная с января 2011 года, Вы можете получить, выбрав интересующий диапазон дат из раскрывающегося списка и нажав кнопку "Ввод!".


*Определитесь, кто Вы:
робот инопланетянин человек

Внимание! Время в таблицах - всемирное. Для получения местного времени необходимо прибавить поправку, которая равна 1 ч.

Смотрите также архив погоды в соседних городах и на ближайших метеорологических станциях:

Погода в Лионе (Франция) (34 км)
Погода в Лион аэропорту (Франция) (43 км)
Погода в Маконе (Франция) (54 км)
Погода в Шамбери (Франция) (57 км)
Погода в Анси (Франция) (61 км)
Погода в Гренобль аэропорту (Франция) (68 км)
Погода в Женеве (Швейцария) (69 км)
Погода в Ле Соваже (Франция) (74 км)
Погода на Ла Доли (Швейцария) (78 км)
Погода в Шарбоньере (Швейцария) (79 км)

Пояснения к столбцам:

Ветер - указаны скорость ветра в м/с - средняя за 10 мин, порывы в срок и между сроками (в фигурных скобках) и направление, откуда дует ветер: С - северный, СВ - северо-восточный, В - восточный, ЮВ - юго-восточный, Ю - южный, ЮЗ - юго-западный, З - западный, СЗ - северо-западный.
Видимость - горизонтальная дальность видимости в метрах или километрах. При видимости от 1 до 10 км при отсутствии осадков обычно наблюдается дымка, при ухудшении видимости до 1 км и менее - туман. В сухую погоду видимость может ухудшаться дымом, пылью или мглою.
Явления - указаны атмосферные явления, наблюдавшиеся в срок или в последний час перед сроком; фигурными скобками обозначены явления, наблюдавшиеся между сроками (за 1-3 часа до срока); квадратными скобками обозначены град или гололедные отложения с указанием их диаметра в мм.
Облачность - указаны через наклонную черту общая и нижняя облачность в баллах и высота нижней границы облаков в метрах; квадратными скобками обозначены формы облаков: Ci - перистые, Cs - перисто-слоистые, Cc - перисто-кучевые, Ac - высококучевые, As - высокослоистые, Sc - слоисто-кучевые, Ns - слоисто-дождевые, Cu - кучевые, Cb - кучево-дождевые. Подробнее классификацию облаков см. в Атласе облаков (PDF).
T - Температура воздуха - температура, измеренная на высоте 2 м над землей.
Td - Температура точки росы - температура, при понижении до которой содержащийся в воздухе водяной пар достигнет насыщения.
f - Относительная влажность воздуха - влажноcть воздуха, измеренная на высоте 2 м над землей.
Te - Эффективная температура - температура, которую ощущает одетый по сезону человек в тени. Характеристика душности погоды. При расчете учитывается влияние влажности воздуха и скорости ветра на теплоощущения человека.
Tes - Эффективная температура на солнце - температура, которую ощущает человек, с поправкой на солнечный нагрев. Характеристика знойности погоды. Зависит от высоты солнца над горизонтом, облачности и скорости ветра. Ночью, в пасмурную погоду, а также при ветре 12 м/с и более поправка равна нулю.
P - Атмосферное давление - приведенное к уровню моря атмосферное давление.
Po - Атмосферное давление - измеренное на уровне метеостанции атмосферное давление.
Tmin - Минимальная температура - минимум температуры воздуха на высоте 2 м над землей.
Tmax - Максимальная температура - максимум температуры воздуха на высоте 2 м над землей.
R - Количество осадков - Количество выпавших осадков за период времени, мм. При наведении курсора мыши на число - период времени, за который выпало указанное количество осадков.
R24 - Количество осадков - Количество выпавших осадков за 24 часа, мм.
S - Снежный покров - Высота снежного покрова, см. При наведении курсора мыши на число - состояние снежного покрова и степень покрытия местности в баллах.